{"data":{"norad_id":59745,"intl_designator":"2024-090R","name":"STARLINK-31805","alt_names":[],"object_type":"PAYLOAD","status":"ACTIVE","operator":null,"country":"US","launch_date":"2024-05-13","launch_site_code":"AFETR","launch_vehicle":null,"mission":null,"orbit_class":"UNKNOWN","rcs_meters":null,"size_class":null,"mass_kg":null,"dimensions":null,"purposes":["comms"],"wikipedia_slug":null,"has_3d_model":false,"image_url":null,"decayed_at":null,"tle_current":{"epoch":"2026-09-21T03:00:40.203648Z","epoch_age_seconds":117321,"freshness":"FRESH","line1":"1 59745U 24090R   26264.12546532  .00000414  00000+0  24580-4 0  9994","line2":"2 59745  43.0014 159.4185 0001390 261.3525  98.7169 15.27579774133331","mean_motion":15.27579774,"eccentricity":0.000139,"inclination_deg":43.0014,"raan_deg":159.4185,"arg_perigee_deg":261.3525,"mean_anomaly_deg":98.7169,"bstar":2.458e-5,"rev_number":13333,"period_min":94.266762660082,"perigee_km":482.09606780362,"apogee_km":484.00347772645,"semimajor_km":6861.186772765,"source":"CELESTRAK","updated_at":"2026-09-22T09:00:49.064944Z"}}}